SCP
0 0 0 0 0 0 0 0 0 0 0 0 0 0 0 0 0 0 0 0 0 0 -0 -0 -0 -0 -0 -0 0 0 0 0 0 0 0 0 0 0 0 0 0 0 0 0
0 0 0 0 0 0 0 0 0 0 0 0 0 0 0 0 0 0 0 0 0 0 -0 -0 -0 -0 -0 0 0 0 0 0 0 0 0 0 0 0 0 0 0 0 0 0
0 0 0 0 0 0 0 0 0 0 0 0 0 0 0 0 0 0 0 0 0 0 0 -0 -0 -0 0 0 0 0 0 0 0 0 0 0 0 0 0 0 0 0 0 0
0 0 0 0 0 0 0 0 0 0 0 0 0 0 0 0 0 0 0 0 0 0 -0 0 0 0 0 0 0 0 0 0 0 0 0 0 0 0 0 0 0 0 0 0
0 0 0 0 0 0 0 0 0 0 0 0 0 0 0 0 0 0 0 0 0 0 0 0 0 0 0 0 0 0 0 0 0 0 0 0 0 0 0 0 0 0 0 0
0 0 0 0 0 0 0 0 0 0 0 0 0 0 0 0 0 0 0 0 0 0 0 0 0 0 0 0 0 0 0 0 0 0 0 0 0 0 0 0 0 0 0 0
0 0 0 0 0 0 0 0 0 0 0 0 0 0 0 0 0 0 0 0 0 0 0 0 0 0 0 0 0 0 0 0 0 0 0 0 0 0 0 0 0 0 0 0
0 0 0 0 0 0 0 0 0 0 0 0 0 0 0 0 0 0 0 0 0 0 0 0 0 0 0 0 0 0 0 0 0 0 0 0 0 0 0 0 0 0 0 0
0 0 0 0 0 0 0 0 0 0 0 0 0 0 0 0 0 0 0 0 0 0 0 0 0 0 0 0 0 0 0 0 0 0 0 0 0 0 0 0 0 0 0 0
0 0 0 0 0 0 0 0 0 0 0 0 0 0 0 0 0 0 0 0 0 0 0 0 0 0 0 0 0 0 0 0 0 0 0 0 0 0 0 0 0 0 0 0
0 0 0 0 0 0 0 0 0 0 0 0 0 0 0 0 0 0 0 0 0 0 0 0 0 0 0 0 0 0 0 0 0 0 0 0 0 0 0 0 0 0 0 0
0 0 0 0 0 0 0 0 0 0 0 0 0 0 0 0 0 0 0 0 0 0 0 0 0 0 0 0 0 0 0 0 0 0 0 0 0 0 0 0 0 0 0 0
0 0 0 0 0 0 0 0 0 0 0 0 0 0 0 0 0 0 0 0 0 0 0 0 0 0 0 0 0 0 0 0 0 0 0 0 0 0 0 0 0 0 0 0
0 0 0 0 0 0 0 0 0 0 0 0 0 0 0 0 0 0 0 0 0 0 0 0 0 0 0 0 0 0 0 0 0 0 0 0 0 0 0 0 0 0 0 0
0 0 0 0 0 0 0 0 0 0 0 0 0 0 0 0 0 0 0 0 0 0 0 0 0 0 0 0 0 0 0 0 0 0 0 0 0 0 0 0 0 0 0 0
0 0 0 0 0 0 0 0 0 0 0 0 0 0 0 0 0 0 0 0 0 0 0 0 0 0 0 0 0 0 0 0 0 0 0 0 0 0 0 0 0 0 0 0
0 0 0 0 0 0 0 0 0 0 0 0 0 0 0 0 0 0 0 0 0 0 0 0 0 0 0 0 0 0 0 0 0 0 0 0 0 0 0 0 0 0 0 0
0 0 0 0 0 0 0 0 0 0 0 0 0 0 0 0 0 0 0 0 0 0 0 0 0 0 0 0 0 0 0 0 0 0 0 0 0 0 0 0 0 0 0 0
0 0 0 0 0 0 0 0 0 0 0 0 0 0 0 0 0 0 0 0 0 0 0 0 0 0 0 0 0 0 0 0 0 0 0 0 0 0 0 0 0 0 0 0
0 0 0 0 0 0 0 0 0 0 0 0 0 0 0 0 0 0 0 0 0 0 0 0 0 0 0 0 0 0 0 0 0 0 0 0 0 0 0 0 0 0 0 0
0 0 0 0 0 0 0 0 0 0 0 0 0 0 0 0 0 0 0 0 0 0 0 0 0 0 0 0 0 0 0 0 0 0 0 0 0 0 0 0 0 0 0 0
0 0 0 0 0 0 0 0 0 0 0 0 0 0 0 0 0 0 0 0 0 0 0 0 0 0 0 0 0 0 0 0 0 0 0 0 0 0 0 0 0 0 0 0
0 0 0 0 0 0 0 0 0 0 0 0 0 0 0 0 0 0 0 0 0 0 0 0 0 0 0 0 0 0 0 0 0 0 0 0 0 0 0 0 0 0 0 0
0 0 0 0 0 0 0 0 0 0 0 0 0 0 0 0 0 0 0 0 0 0 0 0 0 0 0 0 0 0 0 0 0 0 0 0 0 0 0 0 0 0 0 0
0 0 0 0 0 0 0 0 0 0 0 0 0 0 0 0 0 0 0 0 0 0 0 0 0 0 0 0 0 0 0 0 0 0 0 0 0 0 0 0 0 0 0 0
0 0 0 0 0 0 0 0 0 0 0 0 0 0 0 0 0 0 0 0 0 0 0 0 0 0 0 0 0 0 0 0 0 0 0 0 0 0 0 0 0 0 0 0
Wind_Speed_500mb
11 15 3 1 5 10 10 8 7 5 8 5 7 10 36 43 36 34 37 49 53 46 35 27 21 21 16 9 17 18 16 15 15 15 20 25 25 26 36 23 38 48 48 46
13 5 4 13 13 14 9 6 5 9 6 5 11 3 10 23 15 38 44 48 50 41 34 25 20 17 12 14 18 22 23 22 25 28 28 31 39 42 36 40 42 43 39 52
12 5 13 5 7 9 2 7 3 10 9 5 8 7 6 5 16 30 44 50 44 38 28 21 23 22 23 23 23 26 28 30 29 30 36 41 43 44 47 48 47 49 52 49
9 5 5 10 6 6 3 5 5 9 4 4 6 7 0 4 7 28 45 46 41 38 35 32 33 34 30 24 30 37 38 40 37 39 43 46 50 56 55 57 57 58 57 55
4 11 6 8 3 4 8 7 6 5 4 7 12 8 8 7 6 9 23 37 37 36 34 35 39 32 21 21 24 27 38 44 47 47 50 56 62 67 70 69 73 72 68 68
2 3 4 10 4 6 5 2 12 9 6 6 4 7 8 4 10 9 23 35 33 28 19 14 8 10 19 22 26 29 29 31 35 41 46 50 53 54 60 65 72 75 76 70
10 6 8 3 4 6 16 14 9 11 11 7 7 4 12 8 8 12 33 33 27 24 16 8 8 11 14 15 18 21 27 31 36 40 47 56 64 70 74 77 82 84 82 77
6 9 4 5 5 3 7 9 9 5 3 10 8 4 9 5 2 7 22 26 20 11 4 6 7 11 11 18 25 26 29 36 44 55 64 69 73 74 74 71 75 76 71 69
7 6 7 5 4 9 3 1 6 12 4 4 6 10 12 7 5 9 16 16 6 1 3 6 10 17 24 24 26 33 44 53 61 68 76 77 72 66 71 69 64 66 69 72
7 1 3 6 6 14 4 9 6 6 1 6 9 9 10 9 15 7 11 7 2 2 7 14 21 29 30 30 37 48 54 63 71 74 72 70 66 64 60 58 55 60 59 54
7 8 10 5 1 7 5 3 11 8 8 8 4 11 10 13 14 14 11 3 6 6 10 22 30 29 31 38 44 54 65 70 71 69 66 66 61 54 56 51 49 49 46 47
4 9 5 13 4 3 1 2 8 10 5 1 5 13 3 5 10 19 10 7 7 10 21 28 26 32 37 44 55 66 67 64 63 62 65 60 55 57 52 49 47 47 49 47
10 4 6 15 12 8 9 4 9 9 6 10 9 11 3 4 7 6 7 10 13 19 27 25 31 36 43 55 65 66 65 65 65 66 67 56 54 46 46 52 50 51 46 47
7 6 12 11 12 5 9 4 4 9 6 6 12 12 11 12 10 10 12 13 16 24 23 28 34 39 51 61 66 66 65 65 69 69 62 51 49 46 52 55 56 52 46 40
8 5 7 10 10 5 9 12 8 14 11 11 13 13 13 16 16 16 13 15 21 21 26 31 36 46 57 61 67 61 64 67 67 63 51 48 50 51 58 55 59 59 45 41
4 5 3 6 6 3 9 17 17 15 10 14 9 13 10 14 14 15 19 21 22 24 28 30 39 50 57 65 62 63 62 62 57 52 46 50 51 56 61 55 61 56 44 38
6 10 6 8 8 10 7 8 5 6 6 9 8 12 15 11 17 18 24 23 22 25 23 31 43 52 60 58 62 61 59 57 54 45 49 53 55 62 62 54 60 55 45 33
11 9 4 5 7 3 11 5 11 10 6 9 7 6 18 16 16 20 23 21 21 21 24 34 46 53 53 57 56 54 51 52 52 45 53 56 57 61 57 61 58 56 45 35
7 10 5 5 4 12 11 2 4 6 13 15 13 15 16 10 10 25 27 21 22 21 26 38 48 52 50 50 50 51 51 51 51 53 55 56 58 62 59 53 61 53 45 34
10 11 8 5 5 8 13 4 5 8 9 21 26 24 20 13 4 10 11 18 18 20 31 43 49 46 48 44 49 53 54 55 57 56 57 54 58 57 55 53 52 52 48 34
4 4 10 5 8 14 16 14 8 10 15 14 33 28 26 14 19 16 12 16 17 24 35 43 48 42 48 43 47 49 53 55 55 54 55 51 54 54 52 52 47 46 46 46
15 13 9 5 4 14 21 13 15 15 9 18 30 31 29 27 22 17 17 17 20 26 36 41 47 42 45 43 46 50 52 53 56 55 48 50 55 56 55 56 52 44 40 44
4 15 11 17 15 10 33 16 24 18 17 20 27 27 26 24 22 17 19 18 20 27 34 41 46 43 42 41 44 49 50 56 58 57 53 49 56 59 57 60 53 45 36 35
7 11 6 6 14 34 33 34 48 29 30 25 26 27 25 24 19 19 18 18 21 27 33 42 47 42 44 42 44 44 48 54 57 56 54 49 57 61 63 60 50 45 38 40
10 20 11 9 17 16 19 22 31 46 38 35 31 29 25 21 19 16 16 18 23 27 32 40 46 40 41 43 43 44 47 53 53 52 51 49 55 61 65 57 52 41 34 35
16 14 10 12 21 11 25 30 28 37 44 50 41 34 29 21 18 13 16 18 22 25 32 41 42 37 38 40 40 39 42 49 48 50 50 48 56 61 63 58 54 37 31 33
Wind_Direction_500mb
22 70 80 326 91 109 101 83 26 308 16 323 227 181 177 176 181 184 184 179 179 181 172 173 175 181 189 211 220 223 228 234 246 265 269 273 271 296 291 305 308 303 308 313
34 64 149 119 92 97 79 100 334 294 313 47 4 75 154 168 186 185 189 192 190 191 196 198 202 212 224 241 248 241 244 249 251 258 266 268 274 282 276 282 287 284 296 304
119 163 163 93 64 68 82 133 254 227 340 53 11 48 90 145 152 178 197 200 200 200 206 212 222 236 241 256 271 268 267 262 263 264 276 275 276 280 279 282 280 285 289 291
97 79 87 56 57 98 16 219 247 273 69 228 36 267 72 321 161 175 194 206 211 215 224 233 240 248 257 281 281 277 269 262 258 268 272 276 281 283 280 280 278 276 273 275
257 144 100 71 285 195 221 14 30 358 100 85 4 82 257 149 127 175 198 208 216 225 238 249 259 261 254 267 283 271 264 261 260 273 282 279 278 281 283 281 281 277 274 272
64 32 109 189 81 47 330 41 46 56 75 49 334 125 295 226 189 172 196 209 214 219 209 202 190 218 268 275 277 273 270 278 285 287 284 285 288 290 292 292 293 291 288 283
11 341 319 138 41 18 48 45 345 1 11 224 333 77 242 285 228 217 197 195 194 184 206 245 293 295 301 288 289 292 301 301 296 295 299 301 302 302 302 302 300 298 295 291
139 323 352 21 109 157 45 127 148 270 288 278 316 300 272 232 69 147 174 175 170 198 275 298 340 347 336 322 316 312 302 300 309 309 308 308 306 306 303 301 298 295 291 289
138 275 319 71 119 115 151 73 166 105 7 25 278 294 328 152 122 132 147 162 152 64 80 346 331 335 332 324 316 312 310 310 308 309 310 309 310 308 306 304 303 300 292 287
181 25 12 315 98 44 142 148 47 14 249 307 304 292 238 232 233 155 167 150 59 323 300 336 335 330 323 312 308 307 306 310 312 312 311 311 312 312 311 308 310 310 301 298
113 107 292 349 74 172 31 1 54 111 122 174 279 267 214 258 254 192 184 218 295 276 301 325 327 320 311 304 305 309 314 313 314 314 316 317 317 317 316 313 314 314 305 301
62 130 206 238 297 261 150 139 118 113 246 114 153 273 280 282 158 159 180 262 283 291 319 320 317 317 313 308 312 315 316 317 317 321 323 321 320 316 315 318 316 309 302 299
182 31 23 350 357 9 75 65 108 103 85 202 143 264 230 201 156 168 243 289 282 301 314 309 311 317 313 315 318 321 322 320 322 321 323 321 323 325 329 327 322 318 306 304
96 109 148 187 216 178 294 246 97 129 120 213 223 275 245 230 218 249 269 288 263 300 296 304 316 314 316 322 324 325 325 325 324 322 321 322 322 328 329 329 321 318 313 301
98 149 185 247 242 217 239 259 227 195 206 184 263 220 276 208 215 239 250 265 279 287 299 312 311 316 324 325 327 329 328 329 330 327 325 326 327 332 335 334 332 327 313 309
28 182 144 292 5 166 272 278 275 236 224 249 263 270 202 186 200 226 239 267 276 295 308 308 314 323 328 329 329 328 328 332 334 333 330 331 337 336 334 333 332 325 325 304
121 131 99 266 334 317 341 234 239 284 188 162 203 239 167 204 231 260 262 265 279 300 301 312 324 329 331 330 329 327 327 329 333 332 331 337 337 338 338 337 335 334 326 310
130 104 101 238 354 344 239 275 241 238 227 211 242 206 195 224 255 265 254 256 281 298 309 324 331 331 332 335 333 330 329 334 339 338 336 338 340 341 344 341 338 338 330 311
104 121 94 150 193 292 319 181 127 174 274 200 208 210 213 222 253 265 256 259 289 301 321 331 332 331 334 336 334 339 342 343 341 341 337 343 345 345 344 346 344 340 335 324
83 88 119 138 165 231 240 260 148 126 305 217 201 210 197 190 334 264 249 265 285 313 328 333 332 334 333 335 335 341 345 347 349 343 341 347 345 349 348 347 348 346 351 336
112 39 175 152 220 286 244 183 141 83 240 210 208 218 200 194 237 292 286 294 298 321 332 333 334 334 335 334 331 339 344 346 345 345 346 347 350 352 354 345 342 339 349 355
172 157 196 108 163 277 175 118 164 220 226 216 215 224 227 246 268 269 287 297 309 322 332 334 335 335 338 332 332 342 345 344 344 347 350 350 355 0 359 356 349 347 357 358
204 186 190 175 210 238 193 215 227 260 237 242 238 238 242 247 263 271 293 293 307 324 331 336 337 335 341 337 337 340 344 347 347 350 355 355 359 3 4 360 358 358 9 355
238 164 190 101 244 237 249 248 251 250 248 268 257 244 239 250 261 275 285 293 310 322 330 339 340 337 341 342 341 342 351 349 348 351 355 359 359 1 6 7 7 3 10 6
189 148 172 256 275 266 260 263 274 249 254 252 242 241 235 239 260 278 282 297 312 320 333 342 341 337 340 342 344 349 351 349 350 354 357 1 0 3 6 11 12 12 19 10
198 177 163 216 224 227 275 292 269 252 251 248 240 226 219 240 264 275 287 300 309 323 334 341 342 336 340 341 341 347 349 353 353 355 358 0 1 5 9 10 14 30 29 27
Wind_Speed_850mb
11 15 3 1 5 10 10 8 7 5 8 5 7 10 36 43 36 34 37 49 53 46 35 27 21 21 16 9 17 18 16 15 15 15 20 25 25 26 36 23 38 48 48 46
13 5 4 13 13 14 9 6 5 9 6 5 11 3 10 23 15 38 44 48 50 41 34 25 20 17 12 14 18 22 23 22 25 28 28 31 39 42 36 40 42 43 39 52
12 5 13 5 7 9 2 7 3 10 9 5 8 7 6 5 16 30 44 50 44 38 28 21 23 22 23 23 23 26 28 30 29 30 36 41 43 44 47 48 47 49 52 49
9 5 5 10 6 6 3 5 5 9 4 4 6 7 0 4 7 28 45 46 41 38 35 32 33 34 30 24 30 37 38 40 37 39 43 46 50 56 55 57 57 58 57 55
4 11 6 8 3 4 8 7 6 5 4 7 12 8 8 7 6 9 23 37 37 36 34 35 39 32 21 21 24 27 38 44 47 47 50 56 62 67 70 69 73 72 68 68
2 3 4 10 4 6 5 2 12 9 6 6 4 7 8 4 10 9 23 35 33 28 19 14 8 10 19 22 26 29 29 31 35 41 46 50 53 54 60 65 72 75 76 70
10 6 8 3 4 6 16 14 9 11 11 7 7 4 12 8 8 12 33 33 27 24 16 8 8 11 14 15 18 21 27 31 36 40 47 56 64 70 74 77 82 84 82 77
6 9 4 5 5 3 7 9 9 5 3 10 8 4 9 5 2 7 22 26 20 11 4 6 7 11 11 18 25 26 29 36 44 55 64 69 73 74 74 71 75 76 71 69
7 6 7 5 4 9 3 1 6 12 4 4 6 10 12 7 5 9 16 16 6 1 3 6 10 17 24 24 26 33 44 53 61 68 76 77 72 66 71 69 64 66 69 72
7 1 3 6 6 14 4 9 6 6 1 6 9 9 10 9 15 7 11 7 2 2 7 14 21 29 30 30 37 48 54 63 71 74 72 70 66 64 60 58 55 60 59 54
7 8 10 5 1 7 5 3 11 8 8 8 4 11 10 13 14 14 11 3 6 6 10 22 30 29 31 38 44 54 65 70 71 69 66 66 61 54 56 51 49 49 46 47
4 9 5 13 4 3 1 2 8 10 5 1 5 13 3 5 10 19 10 7 7 10 21 28 26 32 37 44 55 66 67 64 63 62 65 60 55 57 52 49 47 47 49 47
10 4 6 15 12 8 9 4 9 9 6 10 9 11 3 4 7 6 7 10 13 19 27 25 31 36 43 55 65 66 65 65 65 66 67 56 54 46 46 52 50 51 46 47
7 6 12 11 12 5 9 4 4 9 6 6 12 12 11 12 10 10 12 13 16 24 23 28 34 39 51 61 66 66 65 65 69 69 62 51 49 46 52 55 56 52 46 40
8 5 7 10 10 5 9 12 8 14 11 11 13 13 13 16 16 16 13 15 21 21 26 31 36 46 57 61 67 61 64 67 67 63 51 48 50 51 58 55 59 59 45 41
4 5 3 6 6 3 9 17 17 15 10 14 9 13 10 14 14 15 19 21 22 24 28 30 39 50 57 65 62 63 62 62 57 52 46 50 51 56 61 55 61 56 44 38
6 10 6 8 8 10 7 8 5 6 6 9 8 12 15 11 17 18 24 23 22 25 23 31 43 52 60 58 62 61 59 57 54 45 49 53 55 62 62 54 60 55 45 33
11 9 4 5 7 3 11 5 11 10 6 9 7 6 18 16 16 20 23 21 21 21 24 34 46 53 53 57 56 54 51 52 52 45 53 56 57 61 57 61 58 56 45 35
7 10 5 5 4 12 11 2 4 6 13 15 13 15 16 10 10 25 27 21 22 21 26 38 48 52 50 50 50 51 51 51 51 53 55 56 58 62 59 53 61 53 45 34
10 11 8 5 5 8 13 4 5 8 9 21 26 24 20 13 4 10 11 18 18 20 31 43 49 46 48 44 49 53 54 55 57 56 57 54 58 57 55 53 52 52 48 34
4 4 10 5 8 14 16 14 8 10 15 14 33 28 26 14 19 16 12 16 17 24 35 43 48 42 48 43 47 49 53 55 55 54 55 51 54 54 52 52 47 46 46 46
15 13 9 5 4 14 21 13 15 15 9 18 30 31 29 27 22 17 17 17 20 26 36 41 47 42 45 43 46 50 52 53 56 55 48 50 55 56 55 56 52 44 40 44
4 15 11 17 15 10 33 16 24 18 17 20 27 27 26 24 22 17 19 18 20 27 34 41 46 43 42 41 44 49 50 56 58 57 53 49 56 59 57 60 53 45 36 35
7 11 6 6 14 34 33 34 48 29 30 25 26 27 25 24 19 19 18 18 21 27 33 42 47 42 44 42 44 44 48 54 57 56 54 49 57 61 63 60 50 45 38 40
10 20 11 9 17 16 19 22 31 46 38 35 31 29 25 21 19 16 16 18 23 27 32 40 46 40 41 43 43 44 47 53 53 52 51 49 55 61 65 57 52 41 34 35
16 14 10 12 21 11 25 30 28 37 44 50 41 34 29 21 18 13 16 18 22 25 32 41 42 37 38 40 40 39 42 49 48 50 50 48 56 61 63 58 54 37 31 33
Wind_Direction_850mb
22 70 80 326 91 109 101 83 26 308 16 323 227 181 177 176 181 184 184 179 179 181 172 173 175 181 189 211 220 223 228 234 246 265 269 273 271 296 291 305 308 303 308 313
34 64 149 119 92 97 79 100 334 294 313 47 4 75 154 168 186 185 189 192 190 191 196 198 202 212 224 241 248 241 244 249 251 258 266 268 274 282 276 282 287 284 296 304
119 163 163 93 64 68 82 133 254 227 340 53 11 48 90 145 152 178 197 200 200 200 206 212 222 236 241 256 271 268 267 262 263 264 276 275 276 280 279 282 280 285 289 291
97 79 87 56 57 98 16 219 247 273 69 228 36 267 72 321 161 175 194 206 211 215 224 233 240 248 257 281 281 277 269 262 258 268 272 276 281 283 280 280 278 276 273 275
257 144 100 71 285 195 221 14 30 358 100 85 4 82 257 149 127 175 198 208 216 225 238 249 259 261 254 267 283 271 264 261 260 273 282 279 278 281 283 281 281 277 274 272
64 32 109 189 81 47 330 41 46 56 75 49 334 125 295 226 189 172 196 209 214 219 209 202 190 218 268 275 277 273 270 278 285 287 284 285 288 290 292 292 293 291 288 283
11 341 319 138 41 18 48 45 345 1 11 224 333 77 242 285 228 217 197 195 194 184 206 245 293 295 301 288 289 292 301 301 296 295 299 301 302 302 302 302 300 298 295 291
139 323 352 21 109 157 45 127 148 270 288 278 316 300 272 232 69 147 174 175 170 198 275 298 340 347 336 322 316 312 302 300 309 309 308 308 306 306 303 301 298 295 291 289
138 275 319 71 119 115 151 73 166 105 7 25 278 294 328 152 122 132 147 162 152 64 80 346 331 335 332 324 316 312 310 310 308 309 310 309 310 308 306 304 303 300 292 287
181 25 12 315 98 44 142 148 47 14 249 307 304 292 238 232 233 155 167 150 59 323 300 336 335 330 323 312 308 307 306 310 312 312 311 311 312 312 311 308 310 310 301 298
113 107 292 349 74 172 31 1 54 111 122 174 279 267 214 258 254 192 184 218 295 276 301 325 327 320 311 304 305 309 314 313 314 314 316 317 317 317 316 313 314 314 305 301
62 130 206 238 297 261 150 139 118 113 246 114 153 273 280 282 158 159 180 262 283 291 319 320 317 317 313 308 312 315 316 317 317 321 323 321 320 316 315 318 316 309 302 299
182 31 23 350 357 9 75 65 108 103 85 202 143 264 230 201 156 168 243 289 282 301 314 309 311 317 313 315 318 321 322 320 322 321 323 321 323 325 329 327 322 318 306 304
96 109 148 187 216 178 294 246 97 129 120 213 223 275 245 230 218 249 269 288 263 300 296 304 316 314 316 322 324 325 325 325 324 322 321 322 322 328 329 329 321 318 313 301
98 149 185 247 242 217 239 259 227 195 206 184 263 220 276 208 215 239 250 265 279 287 299 312 311 316 324 325 327 329 328 329 330 327 325 326 327 332 335 334 332 327 313 309
28 182 144 292 5 166 272 278 275 236 224 249 263 270 202 186 200 226 239 267 276 295 308 308 314 323 328 329 329 328 328 332 334 333 330 331 337 336 334 333 332 325 325 304
121 131 99 266 334 317 341 234 239 284 188 162 203 239 167 204 231 260 262 265 279 300 301 312 324 329 331 330 329 327 327 329 333 332 331 337 337 338 338 337 335 334 326 310
130 104 101 238 354 344 239 275 241 238 227 211 242 206 195 224 255 265 254 256 281 298 309 324 331 331 332 335 333 330 329 334 339 338 336 338 340 341 344 341 338 338 330 311
104 121 94 150 193 292 319 181 127 174 274 200 208 210 213 222 253 265 256 259 289 301 321 331 332 331 334 336 334 339 342 343 341 341 337 343 345 345 344 346 344 340 335 324
83 88 119 138 165 231 240 260 148 126 305 217 201 210 197 190 334 264 249 265 285 313 328 333 332 334 333 335 335 341 345 347 349 343 341 347 345 349 348 347 348 346 351 336
112 39 175 152 220 286 244 183 141 83 240 210 208 218 200 194 237 292 286 294 298 321 332 333 334 334 335 334 331 339 344 346 345 345 346 347 350 352 354 345 342 339 349 355
172 157 196 108 163 277 175 118 164 220 226 216 215 224 227 246 268 269 287 297 309 322 332 334 335 335 338 332 332 342 345 344 344 347 350 350 355 0 359 356 349 347 357 358
204 186 190 175 210 238 193 215 227 260 237 242 238 238 242 247 263 271 293 293 307 324 331 336 337 335 341 337 337 340 344 347 347 350 355 355 359 3 4 360 358 358 9 355
238 164 190 101 244 237 249 248 251 250 248 268 257 244 239 250 261 275 285 293 310 322 330 339 340 337 341 342 341 342 351 349 348 351 355 359 359 1 6 7 7 3 10 6
189 148 172 256 275 266 260 263 274 249 254 252 242 241 235 239 260 278 282 297 312 320 333 342 341 337 340 342 344 349 351 349 350 354 357 1 0 3 6 11 12 12 19 10
198 177 163 216 224 227 275 292 269 252 251 248 240 226 219 240 264 275 287 300 309 323 334 341 342 336 340 341 341 347 349 353 353 355 358 0 1 5 9 10 14 30 29 27